Terminal Aerodrome Forecast
Issued by NWS Mt. Holly, NJ

Home | Current Version | Previous Version | Text Only | Print | Product List | Glossary On
Versions: 1 2 3 4 5 6 7 8 9 10 11 12 13 14 15 16 17 18 19 20 21 22 23 24 25 26 27 28 29 30 31 32 33 34 35 36 37 38 39 40 41 42 43 44 45 46 47 48 49 50
000
FTAK31 PANC 070200 AAB
TAFABE
TAF AMD
PABE 070200Z 0702/0724 20015G22KT 3SM -SHSN BR OVC006
      TEMPO 0702/0706 1/2SM -SN BLSN OVC002
     FM071400 23028G40KT 1 1/2SM -SHSN BLSN SCT008 BKN012
     FM072100 25020G28KT P6SM VCSH SCT015 BKN030=

USA.gov is the U.S. government's official web portal to all federal, state and local government web resources and services.